This is the latest recevied weather packets stored in our database for station/object KC1DMA. If no packets are shown the sender has not sent any weather packets the latest 10 day(s).
| Time | Temp. | Humidity | Pressure | Rain* | Wind** | Luminosity | Snow |
|---|---|---|---|---|---|---|---|
| 1777859731 | 7.78° C | 56% | 1012.9 hPa | - | - | 0 W/m² | - |
| 1777859427 | 7.78° C | 56% | 1013.1 hPa | - | - | 0 W/m² | - |
| 1777859123 | 7.78° C | 56% | 1013.1 hPa | - | - | 0 W/m² | - |
| 1777858820 | 7.78° C | 56% | 1012.9 hPa | - | - | 0 W/m² | - |
| 1777858518 | 7.78° C | 56% | 1013 hPa | - | - | 0 W/m² | - |
| 1777858215 | 7.78° C | 56% | 1012.8 hPa | - | - | 0 W/m² | - |
| 1777857912 | 7.78° C | 56% | 1012.8 hPa | - | - | 0 W/m² | - |
| 1777857609 | 7.78° C | 56% | 1012.8 hPa | - | - | 0 W/m² | - |
| 1777857306 | 7.78° C | 56% | 1012.7 hPa | - | - | 0 W/m² | - |
| 1777857001 | 7.78° C | 56% | 1012.8 hPa | - | - | 0 W/m² | - |
| 1777856698 | 7.78° C | 56% | 1012.7 hPa | - | - | 0 W/m² | - |
| 1777856393 | 7.78° C | 56% | 1012.6 hPa | - | - | 0 W/m² | - |
| 1777856090 | 7.78° C | 55% | 1012.4 hPa | - | - | 0 W/m² | - |
| 1777855788 | 7.78° C | 55% | 1012.3 hPa | - | - | 0 W/m² | - |
| 1777855486 | 7.78° C | 54% | 1012.1 hPa | - | - | 0 W/m² | - |
| 1777855183 | 7.78° C | 53% | 1012 hPa | - | - | 0 W/m² | - |
| 1777854879 | 8.33° C | 53% | 1012.1 hPa | - | - | 0 W/m² | - |
| 1777854575 | 8.33° C | 52% | 1011.9 hPa | - | - | 0 W/m² | - |
| 1777854273 | 8.89° C | 54% | 1011.8 hPa | - | - | 0 W/m² | - |
| 1777853970 | 9.44° C | 45% | 1011.7 hPa | - | - | 1 W/m² | - |
| 1777853667 | 9.44° C | 45% | 1011.9 hPa | - | - | 1 W/m² | - |
| 1777853364 | 9.44° C | 45% | 1011.7 hPa | - | - | 1 W/m² | - |
| 1777853061 | 9.44° C | 45% | 1011.7 hPa | - | - | 1 W/m² | - |
| 1777852758 | 10° C | 43% | 1011.6 hPa | - | - | 2 W/m² | - |
| 1777852456 | 10.56° C | 40% | 1011.6 hPa | - | - | 4 W/m² | - |
* Rain since midnight (hover to see other rain measurements)
** Current wind speed in m/s (hover to see current wind gust speed)